Location: Key Biscayne
(25.6930°N, 80.1630°W)
Time: 12:18:30
(UTC-05:00)

Tiangong 2 - Pass Details

Date: 14 November 2017
Orbit: 386 x 391 km, 42.8° (Epoch: 17 November)

Event Time Altitude Azimuth Distance (km) Brightness Sun altitude
Rises 17:57:10 0° 315° (NW) 2,269 5.4 -6.2°
Reaches altitude 10° 17:59:20 10° 323° (NW) 1,412 4.2 -6.6°
Maximum altitude 18:02:20 37° 34° (NNE) 613 1.7 -7.3°
Drops below altitude 10° 18:05:19 10° 104° (ESE) 1,405 3.4 -7.9°
Enters shadow 18:05:54 - 107° (ESE) 1,634 3.7 -8.0°
